SouthEast Lincoln: Weather Underground Data


Davis Vantage Pro Historical Data
 
Daily Summary for August 19, 2018 Units:  English    Metric   Both
« Previous Day
Next Day »
Daily Weekly Monthly Yearly Custom
  Current: High: Low: Average:
Temperature: 67.2 °F TemperatureF °F 67.2 °F 71.3 °F
Dew Point: 65.72 °F DewpointF °F 65.72 °F 66.6 °F
Humidity: 95% Humidity% 77% 85%
Wind Speed: 3mph WindSpeedMPHmph 0mph 1.2mph
Wind Gust: 3mph WindSpeedGustMPHmph - -
Wind:NW - - South
Pressure: 29.83 in PressureIn in 29.82 in -
Precipitation: 1.67 in      
Historical Graphs
 
 
Tabular Data for August 19, 2018
Time Temperature Dew Point Pressure Wind Wind Speed Wind Gust Humidity Rainfall Rate (Hourly) solar
TemperatureF °F DewpointF °F PressureIn in Calm     Humidity% HourlyPrecipIn in SolarRadiationWatts/m^2 W/m2
00:03 74.9 °F 67.58 °F 29.89 in East 4 mph 5 mph 78% 0 in 0.00 W/m2
00:08 74.8 °F 67.86 °F 29.90 in SSE 1 mph 4 mph 79% 0 in 0.00 W/m2
00:13 74.6 °F 67.66 °F 29.89 in ESE 1 mph 7 mph 79% 0 in 0.00 W/m2
00:18 74.5 °F 67.57 °F 29.89 in SE 2 mph 7 mph 79% 0 in 0.00 W/m2
00:23 74.4 °F 67.83 °F 29.89 in SE 2 mph 6 mph 80% 0 in 0.00 W/m2
00:28 74.4 °F 67.83 °F 29.89 in SE 6 mph 7 mph 80% 0 in 0.00 W/m2
00:33 74.4 °F 67.83 °F 29.89 in South 2 mph 5 mph 80% 0 in 0.00 W/m2
00:38 74.4 °F 67.83 °F 29.89 in SSE 2 mph 5 mph 80% 0 in 0.00 W/m2
00:43 74.4 °F 67.83 °F 29.89 in ENE 4 mph 6 mph 80% 0 in 0.00 W/m2
00:48 74.4 °F 67.83 °F 29.89 in ESE 4 mph 7 mph 80% 0 in 0.00 W/m2
00:53 74.4 °F 67.47 °F 29.89 in SE 2 mph 5 mph 79% 0 in 0.00 W/m2
00:58 74.5 °F 67.57 °F 29.89 in SE 2 mph 6 mph 79% 0 in 0.00 W/m2
01:03 74.6 °F 67.66 °F 29.89 in East 5 mph 6 mph 79% 0 in 0.00 W/m2
01:08 74.6 °F 67.29 °F 29.89 in SE 4 mph 6 mph 78% 0 in 0.00 W/m2
01:13 74.7 °F 67.39 °F 29.89 in Calm   2 mph 78% 0 in 0.00 W/m2
01:18 74.7 °F 67.39 °F 29.89 in SE 1 mph 5 mph 78% 0 in 0.00 W/m2
01:23 74.8 °F 67.11 °F 29.88 in SSE 2 mph 4 mph 77% 0 in 0.00 W/m2
01:28 74.7 °F 67.02 °F 29.88 in Calm   4 mph 77% 0 in 0.00 W/m2
01:33 74.7 °F 67.02 °F 29.88 in SE 1 mph 6 mph 77% 0 in 0.00 W/m2
01:38 74.7 °F 67.02 °F 29.88 in SSE 1 mph 2 mph 77% 0 in 0.00 W/m2
01:43 74.7 °F 67.02 °F 29.88 in SE 1 mph 5 mph 77% 0 in 0.00 W/m2
01:48 74.7 °F 67.02 °F 29.88 in South 2 mph 5 mph 77% 0 in 0.00 W/m2
01:53 74.6 °F 66.92 °F 29.88 in ESE 1 mph 7 mph 77% 0 in 0.00 W/m2
01:58 74.6 °F 66.92 °F 29.88 in SE 2 mph 6 mph 77% 0 in 0.00 W/m2
02:03 74.6 °F 66.92 °F 29.88 in SSE 4 mph 6 mph 77% 0 in 0.00 W/m2
02:08 74.6 °F 66.92 °F 29.87 in SE 5 mph 7 mph 77% 0 in 0.00 W/m2
02:13 74.5 °F 66.82 °F 29.88 in NE 5 mph 5 mph 77% 0 in 0.00 W/m2
02:18 74.4 °F 66.73 °F 29.87 in SE 1 mph 7 mph 77% 0 in 0.00 W/m2
02:23 74.3 °F 66.63 °F 29.87 in SSE 2 mph 6 mph 77% 0 in 0.00 W/m2
02:28 74.3 °F 66.63 °F 29.87 in SE 4 mph 7 mph 77% 0 in 0.00 W/m2
02:33 74.2 °F 66.53 °F 29.87 in Calm     77% 0 in 0.00 W/m2
02:38 74.1 °F 66.44 °F 29.88 in Calm     77% 0 in 0.00 W/m2
02:43 74 °F 66.34 °F 29.88 in ESE 4 mph 6 mph 77% 0 in 0.00 W/m2
02:48 73.9 °F 66.61 °F 29.88 in SE 4 mph 4 mph 78% 0 in 0.00 W/m2
02:53 73.8 °F 66.52 °F 29.87 in Calm   5 mph 78% 0 in 0.00 W/m2
02:58 73.7 °F 66.42 °F 29.87 in SE 2 mph 6 mph 78% 0 in 0.00 W/m2
03:03 73.6 °F 66.69 °F 29.87 in SE 6 mph 11 mph 79% 0 in 0.00 W/m2
03:08 73.4 °F 66.5 °F 29.87 in SSE 4 mph 11 mph 79% 0 in 0.00 W/m2
03:13 73.4 °F 66.5 °F 29.87 in ENE 2 mph 3 mph 79% 0 in 0.00 W/m2
03:18 73.3 °F 66.4 °F 29.87 in SE 7 mph 7 mph 79% 0 in 0.00 W/m2
03:23 73.3 °F 66.4 °F 29.86 in SSE 2 mph 6 mph 79% 0 in 0.00 W/m2
03:28 73.3 °F 66.4 °F 29.86 in SSE 2 mph 6 mph 79% 0 in 0.00 W/m2
03:33 73.2 °F 66.3 °F 29.86 in SE 2 mph 11 mph 79% 0 in 0.00 W/m2
03:38 73.1 °F 66.21 °F 29.86 in SE 4 mph 4 mph 79% 0 in 0.00 W/m2
03:43 73.1 °F 66.21 °F 29.85 in ESE 1 mph 5 mph 79% 0 in 0.00 W/m2
03:48 73.1 °F 66.21 °F 29.85 in SE 2 mph 5 mph 79% 0 in 0.00 W/m2
03:53 73.1 °F 66.21 °F 29.85 in Calm   2 mph 79% 0 in 0.00 W/m2
03:58 73.1 °F 66.21 °F 29.85 in SE 4 mph 5 mph 79% 0 in 0.00 W/m2
04:03 73.1 °F 66.21 °F 29.84 in SE 1 mph 4 mph 79% 0 in 0.00 W/m2
04:08 73.1 °F 66.21 °F 29.84 in SSE 4 mph 5 mph 79% 0 in 0.00 W/m2
04:13 73.2 °F 66.3 °F 29.84 in South 2 mph 5 mph 79% 0 in 0.00 W/m2
04:18 73.2 °F 66.3 °F 29.84 in ESE 1 mph 5 mph 79% 0 in 0.00 W/m2
04:23 73.2 °F 66.3 °F 29.84 in SSE 1 mph 2 mph 79% 0 in 0.00 W/m2
04:28 73.1 °F 66.57 °F 29.84 in SE 2 mph 7 mph 80% 0 in 0.00 W/m2
04:33 73.1 °F 66.57 °F 29.84 in SSE 1 mph 4 mph 80% 0 in 0.00 W/m2
04:38 73 °F 66.47 °F 29.83 in Calm   1 mph 80% 0 in 0.00 W/m2
04:43 72.9 °F 66.37 °F 29.83 in SE 2 mph 4 mph 80% 0 in 0.00 W/m2
04:48 72.8 °F 66.64 °F 29.83 in SE 2 mph 4 mph 81% 0 in 0.00 W/m2
04:53 72.8 °F 66.64 °F 29.83 in SE 2 mph 4 mph 81% 0 in 0.00 W/m2
04:58 72.6 °F 66.44 °F 29.83 in SE 2 mph 4 mph 81% 0 in 0.00 W/m2
05:03 72.6 °F 66.44 °F 29.83 in Calm   2 mph 81% 0 in 0.00 W/m2
05:08 72.4 °F 66.6 °F 29.83 in SE 1 mph 4 mph 82% 0 in 0.00 W/m2
05:13 72.2 °F 66.41 °F 29.83 in SE 2 mph 5 mph 82% 0 in 0.00 W/m2
05:18 72 °F 66.21 °F 29.82 in SE 4 mph 4 mph 82% 0 in 0.00 W/m2
05:23 71.8 °F 66.36 °F 29.82 in SE 2 mph 4 mph 83% 0 in 0.00 W/m2
05:28 71.6 °F 66.17 °F 29.83 in Calm     83% 0 in 0.00 W/m2
05:33 71.5 °F 66.42 °F 29.83 in Calm     84% 0 in 0.00 W/m2
05:38 71.3 °F 66.22 °F 29.83 in SE 1 mph 5 mph 84% 0 in 0.00 W/m2
05:43 71.2 °F 66.12 °F 29.83 in SE 4 mph 4 mph 84% 0 in 0.00 W/m2
05:48 71.1 °F 66.37 °F 29.83 in Calm   2 mph 85% 0 in 0.00 W/m2
05:53 71 °F 66.27 °F 29.83 in Calm     85% 0 in 0.00 W/m2
05:58 70.9 °F 66.17 °F 29.83 in ESE 2 mph 2 mph 85% 0 in 0.00 W/m2
06:03 70.8 °F 66.41 °F 29.83 in Calm     86% 0 in 0.00 W/m2
06:08 70.7 °F 66.31 °F 29.83 in ESE 1 mph 5 mph 86% 0 in 0.00 W/m2
06:13 70.6 °F 66.21 °F 29.83 in ESE 1 mph 1 mph 86% 0 in 0.00 W/m2
06:18 70.6 °F 66.21 °F 29.83 in ESE 1 mph 1 mph 86% 0 in 0.00 W/m2
06:23 70.5 °F 66.12 °F 29.83 in ESE 2 mph 4 mph 86% 0 in 0.00 W/m2
06:28 70.5 °F 66.45 °F 29.83 in Calm     87% 0 in 0.00 W/m2
06:33 70.5 °F 66.45 °F 29.83 in Calm     87% 0 in 0.00 W/m2
06:38 70.5 °F 66.45 °F 29.83 in Calm   1 mph 87% 0 in 0.00 W/m2
06:43 70.5 °F 66.45 °F 29.83 in Calm     87% 0 in 0.00 W/m2
06:48 70.5 °F 66.45 °F 29.83 in Calm   1 mph 87% 0 in 0.00 W/m2
06:53 70.5 °F 66.45 °F 29.83 in Calm   1 mph 87% 0 in 7.00 W/m2
06:58 70.5 °F 66.45 °F 29.83 in Calm   1 mph 87% 0 in 9.00 W/m2
07:03 70.6 °F 66.55 °F 29.83 in Calm   1 mph 87% 0 in 12.00 W/m2
07:08 70.6 °F 66.55 °F 29.83 in Calm     87% 0 in 18.00 W/m2
07:13 70.6 °F 66.55 °F 29.83 in Calm     87% 0 in 23.00 W/m2
07:18 70.6 °F 66.55 °F 29.83 in Calm     87% 0 in 28.00 W/m2
07:23 70.6 °F 66.55 °F 29.84 in Calm     87% 0 in 30.00 W/m2
07:28 70.7 °F 66.65 °F 29.84 in Calm     87% 0 in 32.00 W/m2
07:33 70.8 °F 66.74 °F 29.84 in Calm     87% 0 in 32.00 W/m2
07:38 70.8 °F 66.74 °F 29.84 in ESE 1 mph 1 mph 87% 0 in 35.00 W/m2
07:43 70.8 °F 66.74 °F 29.84 in ESE 1 mph 2 mph 87% 0 in 37.00 W/m2
07:48 71 °F 67.27 °F 29.84 in Calm     88% 0 in 40.00 W/m2
07:53 71.1 °F 67.37 °F 29.84 in ESE 1 mph 2 mph 88% 0 in 47.00 W/m2
07:58 71.2 °F 67.47 °F 29.84 in ESE 2 mph 2 mph 88% 0 in 53.00 W/m2
08:03 71.3 °F 67.24 °F 29.84 in Calm     87% 0 in 62.00 W/m2
08:08 71.4 °F 67.33 °F 29.84 in Calm     87% 0 in 65.00 W/m2
08:13 71.5 °F 67.43 °F 29.84 in Calm     87% 0 in 58.00 W/m2
08:18 71.6 °F 67.53 °F 29.84 in Calm   1 mph 87% 0 in 62.00 W/m2
08:23 71.7 °F 67.63 °F 29.83 in Calm   1 mph 87% 0 in 76.00 W/m2
08:28 71.8 °F 67.73 °F 29.84 in Calm     87% 0 in 90.00 W/m2
08:33 71.9 °F 67.83 °F 29.84 in Calm   1 mph 87% 0 in 91.00 W/m2
08:38 72.1 °F 67.69 °F 29.84 in Calm     86% 0 in 93.00 W/m2
08:43 72.2 °F 67.78 °F 29.84 in Calm     86% 0 in 90.00 W/m2
08:48 72.4 °F 67.64 °F 29.84 in SW 1 mph 2 mph 85% 0 in 83.00 W/m2
08:53 72.6 °F 67.84 °F 29.84 in SW 1 mph 3 mph 85% 0 in 77.00 W/m2
08:58 72.7 °F 67.59 °F 29.84 in Calm   1 mph 84% 0 in 72.00 W/m2
09:03 72.9 °F 67.79 °F 29.84 in Calm   1 mph 84% 0 in 62.00 W/m2
09:08 72.9 °F 67.79 °F 29.84 in Calm     84% 0 in 62.00 W/m2
09:13 73 °F 67.54 °F 29.84 in Calm     83% 0 in 62.00 W/m2
09:18 73 °F 67.54 °F 29.84 in Calm   2 mph 83% 0 in 62.00 W/m2
09:23 73 °F 67.54 °F 29.84 in Calm     83% 0 in 65.00 W/m2
09:28 73.1 °F 67.64 °F 29.84 in Calm     83% 0 in 58.00 W/m2
09:33 73 °F 67.54 °F 29.84 in Calm   5 mph 83% 0 in 53.00 W/m2
09:38 73 °F 67.54 °F 29.84 in WSW 1 mph 2 mph 83% 0 in 88.00 W/m2
09:43 73 °F 67.89 °F 29.84 in Calm   1 mph 84% 0 in 88.00 W/m2
09:48 73 °F 67.54 °F 29.84 in WSW 5 mph 5 mph 83% 0 in 86.00 W/m2
09:53 73 °F 67.54 °F 29.84 in Calm   1 mph 83% 0 in 90.00 W/m2
09:58 72.9 °F 67.79 °F 29.84 in Calm   1 mph 84% 0 in 74.00 W/m2
10:03 73 °F 68.23 °F 29.85 in Calm   2 mph 85% 0 in 53.00 W/m2
10:08 72.9 °F 68.13 °F 29.84 in West 1 mph 6 mph 85% 0 in 88.00 W/m2
10:13 72.6 °F 68.18 °F 29.84 in NNW 1 mph 2 mph 86% 0.01 in 98.00 W/m2
10:18 72.5 °F 68.08 °F 29.85 in Calm     86% 0.01 in 97.00 W/m2
10:23 72.4 °F 68.32 °F 29.84 in Calm     87% 0.01 in 105.00 W/m2
10:28 72.4 °F 68.32 °F 29.84 in Calm   3 mph 87% 0.01 in 90.00 W/m2
10:33 72.3 °F 68.55 °F 29.84 in Calm     88% 0.01 in 70.00 W/m2
10:38 72.3 °F 68.55 °F 29.84 in Calm     88% 0.01 in 74.00 W/m2
10:43 72.2 °F 68.45 °F 29.84 in Calm   2 mph 88% 0.01 in 56.00 W/m2
10:48 72.2 °F 68.78 °F 29.84 in Calm     89% 0.01 in 51.00 W/m2
10:53 72.2 °F 68.78 °F 29.84 in Calm   1 mph 89% 0.01 in 33.00 W/m2
10:58 72.1 °F 68.68 °F 29.85 in Calm     89% 0.01 in 19.00 W/m2
11:03 72 °F 68.58 °F 29.85 in Calm     89% 0.02 in 16.00 W/m2
11:08 71.8 °F 68.39 °F 29.85 in WNW 1 mph 2 mph 89% 0.12 in 28.00 W/m2
11:13 71.6 °F 68.19 °F 29.85 in Calm   1 mph 89% 0.19 in 28.00 W/m2
11:18 71.2 °F 68.12 °F 29.84 in NW 1 mph 2 mph 90% 0.27 in 39.00 W/m2
11:23 70.8 °F 68.05 °F 29.84 in Calm   4 mph 91% 0.3 in 56.00 W/m2
11:28 70.5 °F 67.75 °F 29.84 in NNW 1 mph 1 mph 91% 0.31 in 60.00 W/m2
11:33 70.4 °F 67.97 °F 29.85 in Calm     92% 0.31 in 54.00 W/m2
11:38 70.3 °F 67.87 °F 29.85 in Calm     92% 0.32 in 47.00 W/m2
11:43 70.2 °F 67.77 °F 29.85 in Calm     92% 0.33 in 62.00 W/m2
11:48 70.2 °F 68.09 °F 29.85 in Calm   1 mph 93% 0.34 in 62.00 W/m2
11:53 70.1 °F 67.99 °F 29.85 in WSW 1 mph 2 mph 93% 0.35 in 28.00 W/m2
11:58 70.1 °F 67.99 °F 29.85 in Calm   1 mph 93% 0.37 in 35.00 W/m2
12:03 70.1 °F 67.99 °F 29.85 in Calm     93% 0.37 in 49.00 W/m2
12:08 70.1 °F 67.99 °F 29.85 in Calm     93% 0.31 in 35.00 W/m2
12:13 70.1 °F 68.3 °F 29.85 in WSW 1 mph 1 mph 94% 0.23 in 16.00 W/m2
12:18 70 °F 68.2 °F 29.85 in West 2 mph 5 mph 94% 0.17 in 33.00 W/m2
12:23 69.6 °F 67.49 °F 29.85 in NNW 1 mph 2 mph 93% 0.14 in 28.00 W/m2
12:28 69.4 °F 67.6 °F 29.85 in North 2 mph 2 mph 94% 0.14 in 12.00 W/m2
12:33 69.2 °F 67.09 °F 29.86 in East 4 mph 6 mph 93% 0.18 in 5.00 W/m2
12:38 69.1 °F 67.3 °F 29.86 in ESE 1 mph 2 mph 94% 0.23 in 9.00 W/m2
12:43 69 °F 67.21 °F 29.85 in NW 2 mph 5 mph 94% 0.46 in 33.00 W/m2
12:48 68.8 °F 67.01 °F 29.85 in NW 1 mph 2 mph 94% 0.58 in 32.00 W/m2
12:53 68.6 °F 66.81 °F 29.86 in Calm   3 mph 94% 0.59 in 19.00 W/m2
12:58 68.4 °F 66.61 °F 29.86 in NW 1 mph 3 mph 94% 0.59 in 21.00 W/m2
13:03 68.2 °F 66.41 °F 29.85 in NNW 1 mph 4 mph 94% 0.63 in 44.00 W/m2
13:08 68 °F 66.21 °F 29.86 in Calm     94% 0.63 in 53.00 W/m2
13:13 67.9 °F 66.11 °F 29.85 in Calm     94% 0.63 in 58.00 W/m2
13:18 67.8 °F 66.01 °F 29.85 in Calm     94% 0.67 in 62.00 W/m2
13:23 67.8 °F 66.32 °F 29.85 in Calm     95% 0.66 in 32.00 W/m2
13:28 67.8 °F 66.32 °F 29.85 in Calm     95% 0.66 in 16.00 W/m2
13:33 67.7 °F 66.22 °F 29.85 in Calm     95% 0.66 in 23.00 W/m2
13:38 67.7 °F 66.22 °F 29.85 in Calm     95% 0.65 in 26.00 W/m2
13:43 67.7 °F 66.22 °F 29.85 in Calm     95% 0.45 in 16.00 W/m2
13:48 67.7 °F 66.22 °F 29.85 in NNW 1 mph 1 mph 95% 0.37 in 33.00 W/m2
13:53 67.6 °F 66.12 °F 29.84 in NNW 1 mph 2 mph 95% 0.49 in 58.00 W/m2
13:58 67.6 °F 66.12 °F 29.83 in NNE 3 mph 3 mph 95% 0.5 in 70.00 W/m2
14:03 67.6 °F 66.12 °F 29.83 in Calm     95% 0.46 in 83.00 W/m2
14:08 67.6 °F 66.12 °F 29.84 in Calm   3 mph 95% 0.46 in 58.00 W/m2
14:13 67.6 °F 66.12 °F 29.84 in Calm   2 mph 95% 0.44 in 25.00 W/m2
14:18 67.5 °F 66.02 °F 29.84 in Calm     95% 0.43 in 21.00 W/m2
14:23 67.5 °F 66.02 °F 29.84 in Calm     95% 0.45 in 28.00 W/m2
14:28 67.4 °F 65.92 °F 29.84 in NW 1 mph 2 mph 95% 0.47 in 40.00 W/m2
14:33 67.5 °F 66.02 °F 29.84 in Calm     95% 0.47 in 23.00 W/m2
14:38 67.5 °F 66.02 °F 29.84 in Calm   2 mph 95% 0.44 in 23.00 W/m2
14:43 67.4 °F 65.92 °F 29.84 in ENE 2 mph 6 mph 95% 0.44 in 51.00 W/m2
14:48 67.2 °F 65.72 °F 29.83 in NW 3 mph 3 mph 95% 0.41 in 88.00 W/m2
SouthEast Lincoln Weather
Compliments of Weather Underground - 4 mb